[[{"header":{"parameterUnit":"m.s-1","parameterCategory":1,"la1":30.2991,"la2":30.254,"lo1":-89.0895,"lo2":-89.0444,"dy":0.0017,"dx":0.0017,"nx":28,"ny":28,"refTime":"2024-03-09T09:00:00:Z","depth":0,"parameterNumber":2,"parameterNumberName":"U-component_of_WINDS"},"data":[0,0,0,0,0,0,0,0,0,0,0,0,0,0,0,0,0,0,0,0,0,0,0,0,0,0,0,0,0,0,0,0,0,0,0,0,0,0,0,0,0,0,0,0,0,0,0,0,0,0,0,0,0,0,0,0,0,0,1.9024,1.9025,0,1.912,1.9121,1.9122,1.9124,1.9123,1.9122,1.912,1.9221,1.9225,1.9229,0,0,0,0,0,0,0,0,0,0,0,0,0,1.8848,1.8851,1.9024,1.9026,1.9027,1.912,1.9121,1.9123,1.9124,1.9123,1.9121,1.912,1.922,1.9224,1.9229,0,0,0,0,0,0,0,0,0,0,0,0,0,1.8932,1.8852,1.9024,1.9039,1.9041,1.912,1.9121,1.9123,1.9124,1.9123,1.9121,1.9119,1.9218,1.9224,1.923,1.9301,0,0,1.9247,1.9249,0,0,0,0,0,0,0,0,1.8927,1.8939,1.9035,1.9038,1.9041,1.9108,1.9096,1.9183,1.9125,1.9093,1.912,1.9118,1.9185,1.9193,1.9215,1.9306,1.931,1.9247,1.9251,1.9253,1.9255,0,0,0,0,0,0,0,1.8922,1.8935,1.9062,1.9037,1.904,1.9042,1.9052,1.9112,1.9148,1.9096,1.9096,1.9107,1.9186,1.921,1.9218,1.9311,1.9247,1.9252,1.9256,1.9258,1.9469,1.9471,0,0,0,0,0,0,1.8912,1.893,1.9059,1.9065,1.8978,1.9047,1.9058,1.9088,1.9147,1.9155,1.9108,1.9107,1.9201,1.9211,1.9221,1.9312,1.9253,1.9259,1.9262,1.9467,1.947,1.9472,0,0,0,0,0,0,1.8908,1.8924,1.9055,1.8998,1.9015,1.9052,1.9086,1.9091,1.9115,1.9157,1.9164,1.9126,1.92,1.9213,1.9282,1.9315,1.9261,1.9266,1.9465,1.9468,1.9471,1.9491,0,0,0,0,0,0,1.8903,1.8922,1.8948,1.8998,1.9018,1.9113,1.9088,1.9094,1.9124,1.9123,1.9175,1.9182,1.92,1.9273,1.9288,1.9322,1.9271,1.9462,1.9466,1.947,1.9487,1.9494,1.95,0,0,0,0,0,1.8897,1.895,1.895,1.8965,1.9051,1.9115,1.9126,1.9144,1.9127,1.9155,1.9183,1.9181,1.9309,1.928,1.9296,1.9333,1.946,1.9465,1.947,1.9484,1.9493,1.95,0,0,0,0,0,0,1.8903,1.8956,1.8957,1.9027,1.9066,1.9115,1.915,1.9152,1.9197,1.9194,1.9216,1.9228,1.9297,1.9322,1.9289,1.9407,1.9383,1.9391,1.9388,1.9397,1.9403,1.9396,1.9276,0,0,0,0,0,1.8913,1.8959,1.9003,1.9061,1.9081,1.9112,1.914,1.9151,1.9193,1.921,1.9242,1.9284,1.9334,1.9367,1.9415,1.9491,1.9504,1.9524,1.9531,1.9536,1.9543,1.9589,1.9599,1.9488,1.9488,1.9488,0,0,1.8933,1.8968,1.8995,1.9063,1.9095,1.9144,1.9126,1.9178,1.9215,1.9218,1.9285,1.9311,1.9359,1.9433,1.9466,1.9455,1.9577,1.9542,1.9546,1.955,1.9595,1.9605,1.9615,1.9492,1.9491,1.9491,0,0,1.8995,1.9025,1.9078,1.911,1.9158,1.9179,1.9192,1.9241,1.9258,1.9326,1.933,1.9376,1.9461,1.9496,1.9525,1.9604,1.9605,1.9619,1.9653,1.9698,1.9706,1.9714,1.9745,1.9756,1.9626,1.9626,1.9626,0,1.9014,1.9087,1.9105,1.9158,1.9189,1.9194,1.9249,1.928,1.9342,1.9364,1.9351,1.946,1.9492,1.9576,1.9596,1.9618,1.9636,1.9613,1.9703,1.9711,1.9719,1.9749,1.976,1.9628,1.9628,1.9628,1.9627,0,1.9109,1.916,1.9197,1.9257,1.9292,1.9346,1.9374,1.9408,1.9417,1.944,1.9511,1.9551,1.9609,1.9629,1.9638,1.9715,1.9707,1.9698,1.9674,1.9731,1.9759,1.9771,1.963,1.963,1.9629,1.9629,0,0,1.9176,1.9247,1.9261,1.929,1.9345,1.9385,1.9441,1.9497,1.9527,1.9571,1.9619,1.9693,1.9686,1.9719,1.9732,1.9771,1.9835,1.9758,1.9759,1.9773,1.9926,1.9934,1.9946,1.9836,1.9838,1.984,1.9923,0,1.9246,1.9343,1.9363,1.9448,1.9497,1.9504,1.9553,1.9594,1.9618,1.9664,1.9691,1.9744,1.9729,1.975,1.9788,1.9819,1.9866,1.9813,1.9884,1.9886,1.9873,1.9961,1.9968,2.0044,1.9934,1.9936,1.9937,0,1.9339,1.9385,1.9476,1.9527,1.9549,1.9592,1.9647,1.9691,1.9738,1.9753,1.9792,1.9802,1.9862,1.9835,1.9921,1.9885,1.9915,1.9935,1.9939,1.9947,1.9916,1.9973,2.0069,2.0081,1.9954,1.9953,1.9952,0,1.9382,1.9467,1.9533,1.9557,1.9618,1.9649,1.9676,1.9721,1.9755,1.9804,1.9827,1.9882,1.9913,1.9957,1.9982,1.996,2.0068,2.0042,2.0084,2.0084,2.0107,2.0105,2.021,2.0124,2.0124,2.0123,2.0123,0,1.9458,1.9514,1.9553,1.9593,1.9657,1.968,1.9743,1.977,1.9812,1.986,1.9869,1.9914,1.9945,1.9995,2.0016,2.0086,2.0099,2.0115,2.012,2.0115,2.0113,2.0136,2.0132,2.0126,2.0126,2.0125,2.0125,0,1.9516,1.9544,1.9617,1.967,1.9685,1.973,1.9776,1.9817,1.9842,1.9903,1.9919,1.9958,2.0018,2.0048,2.0123,2.0137,2.0217,2.0218,2.0201,2.0203,2.0245,2.0241,2.0369,2.0389,2.0287,2.0288,2.0289,0,1.9564,1.9607,1.9665,1.9697,1.9725,1.9777,1.9812,1.9838,1.9874,1.9933,1.9968,2.0029,2.0079,2.0175,2.0212,2.027,2.0274,2.0315,2.0282,2.0277,2.0277,2.0275,2.0281,2.0321,2.0322,2.0322,2.0323,0,1.9646,1.9658,1.9707,1.9763,1.9805,1.9849,1.9894,1.992,1.9954,1.9995,2.0056,2.0095,2.0172,2.0233,2.0295,2.0325,2.0331,2.0333,2.0346,2.0342,2.0332,2.034,2.0218,2.033,2.0329,2.0329,2.0328,2.0328,1.9702,1.9741,1.9789,1.9845,1.9881,1.9923,1.9966,1.9996,2.0048,2.0112,2.0125,2.0191,2.0241,2.0324,2.0357,2.0411,2.0402,2.042,2.0425,2.043,2.0434,2.0322,2.0422,2.0421,2.0421,2.0421,2.0421,0,1.9786,1.9818,1.9868,1.9931,1.9976,1.9976,2.0027,2.0065,2.0122,2.0168,2.0217,2.029,2.035,2.0393,2.0455,2.049,2.0495,2.0506,2.0504,2.0512,2.0436,2.042,2.0501,2.0501,2.0501,2.0501,2.0501,2.0501,1.9835,1.9904,1.9922,2.001,2.0042,2.0106,2.0136,2.0176,2.0213,2.0293,2.0343,2.037,2.0416,2.0482,2.0538,2.055,2.0573,2.0585,2.0596,2.0525,2.0517,2.0509,2.0493,2.0589,2.0589,2.0668,2.0668,2.0669]},{"header":{"parameterUnit":"m.s-1","parameterCategory":1,"la1":30.2991,"la2":30.254,"lo1":-89.0895,"lo2":-89.0444,"dy":0.0017,"dx":0.0017,"nx":28,"ny":28,"refTime":"2024-03-09T09:00:00:Z","depth":0,"parameterNumber":3,"parameterNumberName":"V-component_of_WINDS"},"data":[0,0,0,0,0,0,0,0,0,0,0,0,0,0,0,0,0,0,0,0,0,0,0,0,0,0,0,0,0,0,0,0,0,0,0,0,0,0,0,0,0,0,0,0,0,0,0,0,0,0,0,0,0,0,0,0,0,0,-4.6636,-4.6637,0,-4.6756,-4.6757,-4.6759,-4.6776,-4.6775,-4.6774,-4.6773,-4.689,-4.6894,-4.6898,0,0,0,0,0,0,0,0,0,0,0,0,0,-4.6417,-4.6421,-4.6636,-4.6637,-4.6639,-4.6756,-4.6757,-4.6759,-4.6777,-4.6775,-4.6774,-4.6773,-4.6889,-4.6893,-4.6898,0,0,0,0,0,0,0,0,0,0,0,0,0,-4.6522,-4.6422,-4.6635,-4.6662,-4.6665,-4.6755,-4.6757,-4.6759,-4.6777,-4.6775,-4.6774,-4.6772,-4.6887,-4.6893,-4.6899,-4.6969,0,0,-4.6918,-4.692,0,0,0,0,0,0,0,0,-4.6516,-4.653,-4.6656,-4.666,-4.6664,-4.675,-4.6723,-4.6829,-4.6777,-4.6734,-4.6773,-4.6771,-4.6844,-4.6854,-4.688,-4.6975,-4.698,-4.6918,-4.6922,-4.6925,-4.6926,0,0,0,0,0,0,0,-4.6508,-4.6525,-4.6683,-4.6658,-4.6663,-4.6666,-4.6679,-4.6743,-4.6796,-4.6738,-4.674,-4.6754,-4.6846,-4.6874,-4.6882,-4.6981,-4.6918,-4.6924,-4.6927,-4.693,-4.7141,-4.7143,0,0,0,0,0,0,-4.6497,-4.6518,-4.6679,-4.6687,-4.6585,-4.6671,-4.6686,-4.6724,-4.6796,-4.6806,-4.6755,-4.6754,-4.6864,-4.6875,-4.6887,-4.6974,-4.6925,-4.693,-4.6934,-4.7139,-4.7141,-4.7143,0,0,0,0,0,0,-4.6492,-4.6511,-4.6674,-4.6603,-4.6624,-4.6677,-4.6719,-4.6727,-4.6755,-4.6809,-4.6818,-4.6774,-4.6863,-4.6878,-4.6949,-4.6979,-4.6933,-4.6939,-4.7137,-4.714,-4.7142,-4.715,0,0,0,0,0,0,-4.6486,-4.651,-4.6538,-4.6604,-4.6628,-4.6737,-4.6721,-4.673,-4.6766,-4.6766,-4.6829,-4.6838,-4.6863,-4.694,-4.6955,-4.6986,-4.6944,-4.7134,-4.7138,-4.7141,-4.7147,-4.7152,-4.7157,0,0,0,0,0,-4.6478,-4.6533,-4.6539,-4.6558,-4.6665,-4.6738,-4.6752,-4.6781,-4.6768,-4.6797,-4.6832,-4.6836,-4.6973,-4.6947,-4.6964,-4.6998,-4.7132,-4.7137,-4.7141,-4.7145,-4.7151,-4.7157,0,0,0,0,0,0,-4.6467,-4.6543,-4.655,-4.6628,-4.6677,-4.6741,-4.6778,-4.6787,-4.6839,-4.6836,-4.6869,-4.6883,-4.6953,-4.6982,-4.6952,-4.707,-4.7051,-4.7059,-4.7048,-4.7055,-4.706,-4.7051,-4.6949,0,0,0,0,0,-4.6474,-4.653,-4.6592,-4.6655,-4.6679,-4.6724,-4.6757,-4.6776,-4.6827,-4.6847,-4.6887,-4.6935,-4.6989,-4.7023,-4.7076,-4.7151,-4.7165,-4.7183,-4.7188,-4.7192,-4.7198,-4.7241,-4.7249,-4.7157,-4.7157,-4.7157,0,0,-4.6489,-4.6537,-4.6569,-4.6654,-4.6694,-4.6749,-4.6741,-4.68,-4.6841,-4.6855,-4.6926,-4.6957,-4.7012,-4.7086,-4.7121,-4.7113,-4.7227,-4.7197,-4.72,-4.7204,-4.7246,-4.7255,-4.7262,-4.716,-4.716,-4.7159,0,0,-4.6544,-4.6586,-4.6644,-4.6685,-4.6746,-4.6776,-4.679,-4.6853,-4.6875,-4.6947,-4.696,-4.7008,-4.71,-4.7139,-4.7171,-4.7242,-4.7248,-4.7258,-4.7284,-4.7325,-4.7333,-4.7339,-4.7365,-4.7374,-4.7264,-4.7264,-4.7264,0,-4.6553,-4.6639,-4.6672,-4.6731,-4.6768,-4.6786,-4.6844,-4.6882,-4.6956,-4.698,-4.6971,-4.7088,-4.7126,-4.721,-4.7228,-4.7253,-4.7269,-4.7251,-4.7329,-4.7336,-4.7343,-4.7368,-4.7377,-4.7265,-4.7265,-4.7265,-4.7265,0,-4.6648,-4.6707,-4.6746,-4.6821,-4.6862,-4.692,-4.6961,-4.6998,-4.7013,-4.7044,-4.7116,-4.7163,-4.7226,-4.7247,-4.7262,-4.7334,-4.7327,-4.7323,-4.7305,-4.7352,-4.7376,-4.7386,-4.7267,-4.7266,-4.7266,-4.7266,0,0,-4.6698,-4.6792,-4.6806,-4.6841,-4.691,-4.6956,-4.7014,-4.7079,-4.711,-4.7161,-4.721,-4.7289,-4.7286,-4.7322,-4.7341,-4.7378,-4.7432,-4.7369,-4.7371,-4.738,-4.7514,-4.7517,-4.7527,-4.7436,-4.7438,-4.744,-4.7509,0,-4.6762,-4.687,-4.6902,-4.6992,-4.7047,-4.7065,-4.7117,-4.7164,-4.7194,-4.7244,-4.7276,-4.7331,-4.7324,-4.7346,-4.7383,-4.7417,-4.7459,-4.7413,-4.7481,-4.7484,-4.7468,-4.754,-4.7543,-4.7606,-4.7519,-4.7521,-4.7522,0,-4.685,-4.6906,-4.7002,-4.7067,-4.7091,-4.7136,-4.7198,-4.7246,-4.73,-4.7319,-4.736,-4.7377,-4.7437,-4.7416,-4.75,-4.7468,-4.7498,-4.7519,-4.7522,-4.753,-4.7505,-4.7549,-4.7627,-4.7637,-4.7537,-4.7535,-4.7534,0,-4.6878,-4.6977,-4.7048,-4.7076,-4.7153,-4.7185,-4.7217,-4.727,-4.7307,-4.736,-4.7384,-4.7442,-4.7474,-4.7519,-4.755,-4.7532,-4.7631,-4.7612,-4.7648,-4.7647,-4.7668,-4.7666,-4.7752,-4.7686,-4.7686,-4.7686,-4.7686,0,-4.6946,-4.7004,-4.7061,-4.7105,-4.717,-4.7206,-4.7269,-4.7303,-4.735,-4.7399,-4.7418,-4.7463,-4.7501,-4.7551,-4.7576,-4.7642,-4.7656,-4.7672,-4.7678,-4.7671,-4.7669,-4.7691,-4.7687,-4.7689,-4.7688,-4.7688,-4.7687,0,-4.6988,-4.7029,-4.7107,-4.7174,-4.7192,-4.7238,-4.7294,-4.7336,-4.7368,-4.743,-4.7446,-4.7495,-4.7555,-4.7591,-4.7666,-4.7682,-4.7755,-4.7759,-4.7738,-4.774,-4.7774,-4.777,-4.7877,-4.7893,-4.7816,-4.7817,-4.7818,0,-4.7029,-4.7075,-4.7147,-4.7183,-4.7217,-4.7274,-4.7312,-4.7348,-4.7387,-4.7453,-4.7487,-4.7549,-4.7601,-4.7695,-4.7736,-4.7794,-4.7799,-4.7832,-4.7808,-4.7799,-4.78,-4.7797,-4.7802,-4.7836,-4.7837,-4.7838,-4.7838,0,-4.7097,-4.7115,-4.7171,-4.7235,-4.7281,-4.7331,-4.7382,-4.7409,-4.7454,-4.7496,-4.756,-4.76,-4.7678,-4.7739,-4.7801,-4.7832,-4.7842,-4.7846,-4.7857,-4.785,-4.7836,-4.7845,-4.7749,-4.7843,-4.7842,-4.7842,-4.7842,-4.7842,-4.714,-4.7182,-4.724,-4.7302,-4.7344,-4.7392,-4.7435,-4.7473,-4.7527,-4.7595,-4.7613,-4.7679,-4.7732,-4.7816,-4.785,-4.7901,-4.7895,-4.7911,-4.7916,-4.7919,-4.792,-4.7828,-4.7912,-4.7912,-4.7912,-4.7912,-4.7912,0,-4.7209,-4.7248,-4.7305,-4.7377,-4.7425,-4.7433,-4.749,-4.7529,-4.7588,-4.7638,-4.7689,-4.7761,-4.7821,-4.7867,-4.7928,-4.796,-4.7966,-4.7974,-4.7972,-4.798,-4.7922,-4.7906,-4.7969,-4.7969,-4.7969,-4.7968,-4.7968,-4.7968,-4.7251,-4.7323,-4.7349,-4.7441,-4.7479,-4.7547,-4.7578,-4.7622,-4.7662,-4.7743,-4.7794,-4.7824,-4.7872,-4.7937,-4.7991,-4.8003,-4.8025,-4.8032,-4.8045,-4.799,-4.7984,-4.7978,-4.7963,-4.8037,-4.8037,-4.8099,-4.8099,-4.81]}]]